Regional Weather Roundup
Issued by NWS

Home | Current Version | Previous Version | Graphics & Text | Print | Product List | Glossary On
Versions: 1 2 3 4 5 6 7 8 9 10 11 12 13 14 15 16 17 18 19 20 21 22 23 24 25 26 27 28 29 30 31 32 33 34 35 36 37 38 39 40 41 42 43 44 45 46 47 48 49 50
575
ASUS43 KFSD 260510
RWRSD

WEATHER ROUNDUP FOR SOUTH DAKOTA
NATIONAL WEATHER SERVICE SIOUX FALLS SD
1200 AM CDT THU APR 26 2018

NOTE: "FAIR" INDICATES FEW OR NO CLOUDS BELOW 12,000 FEET WITH NO
SIGNIFICANT WEATHER AND/OR OBSTRUCTIONS TO VISIBILITY.


SDZ001>005-009-010-012>017-260600-
NORTHWEST AND NORTH CENTRAL SOUTH DAKOTA

CITY           SKY/WX    TMP DP  RH WIND       PRES   REMARKS
BUFFALO          N/A     52  30  43 N22       29.92R
FAITH            N/A     55  36  48 NW18      29.90F
MOBRIDGE       CLOUDY    50  34  54 SE5       29.81S
$$

SDZ012>016-024>037-041>051-057-063-072>074-260600-
SOUTHWEST AND SOUTH CENTRAL SOUTH DAKOTA

CITY           SKY/WX    TMP DP  RH WIND       PRES   REMARKS
RAPID CTY ARPT CLOUDY    56  32  40 N18G28    29.95R
PIERRE         CLOUDY    51  32  48 S6        29.83F
CUSTER         CLOUDY    50  21  32 N15G28    30.00S
ELLSWORTH AFB  CLOUDY    56  32  40 NW21      29.95S
PHILIP         CLOUDY    52  32  46 N13       29.87R
PINE RIDGE     CLOUDY    58  27  30 N9        29.93R
SPEARFISH      FAIR      52  30  43 NW15      30.05R
WINNER         FAIR      55  28  35 S22G28    29.86F
$$

SDZ004>011-016>023-039-040-260600-
NORTHEAST SOUTH DAKOTA

CITY           SKY/WX    TMP DP  RH WIND       PRES   REMARKS
ABERDEEN       MOCLDY    47  37  68 S13       29.83F
WATERTOWN      CLOUDY    41  34  76 S7        29.89F
BROOKINGS      CLOUDY    46  33  60 S9        29.92F
SISSETON         N/A     47  36  65 SE7       29.83F
$$

SDZ017-020-022-023-036>040-048>070-260600-
SOUTHEAST SOUTH DAKOTA

CITY           SKY/WX    TMP DP  RH WIND       PRES   REMARKS
SIOUX FALLS    CLOUDY    49  30  48 SW5       29.94F
HURON          CLOUDY    48  36  63 S10       29.88F
CHAMBERLAIN    CLOUDY    52  33  48 S10       29.88F
MITCHELL       MOCLDY    50  36  58 S10       29.91F
YANKTON        CLOUDY    49  32  52 S7        29.96F
$$

ABBREVIATIONS USED IN REMARKS
   TC - TEMPERATURE IN CELSIUS
  WCI - WIND CHILL INDEX
   HX - HEAT INDEX
  VSB - VISIBILITY





USA.gov is the U.S. government's official web portal to all federal, state and local government web resources and services.